Location: Newark
(50.4348°N, 30.5552°E)
Time: 20:48:51
(UTC+00:00)

Tiros 1 despin weight - Pass Details

Date: 01 February 2020
Orbit: 594 x 642 km, 48.2° (Epoch: 22 February)

Event Time Altitude Azimuth Distance (km) Brightness Sun altitude
Rises 08:14:41 0° 249° (WSW) 2,845 ? 17.7°
Reaches altitude 10° 08:16:59 10° 245° (WSW) 1,950 ? 17.8°
Maximum altitude 08:21:22 57° 167° (SSE) 723 ? 18.2°
Drops below altitude 10° 08:25:50 10° 89° (E) 1,983 ? 18.5°
Sets 08:28:11 0° 86° (E) 2,898 ? 18.7°
